Location: San Antonio
(29.4240°N, 98.4930°W)
Time: 09:07:12
(UTC-05:00)

Envisat - Pass Details

Date: 24 June 2024
Orbit: 762 x 764 km, 98.3° (Epoch: 12 July)

Event Time Altitude Azimuth Distance (km) Brightness Sun altitude
Rises 04:48:42 0° 10° (N) 3,226 7.1 -19.8°
Reaches altitude 10° 04:51:01 10° 9° (N) 2,297 6.2 -19.5°
Maximum altitude 04:56:04 77° 284° (WNW) 783 2.9 -18.7°
Enters shadow 04:58:36 30° 203° (SSW) 1,339 3.8 -18.3°
